DW1779 Weather Reports


time (UTC)temp
F
wind
direction
speed
knots
gust
knots
rain 1hr
in
rain 24hr
in
rain mn
in
humidity
%
barometer
mb
20260901225551 89 113 0.9 7.8 0.00 0.00 0.00 64 1016.8
20260901225049 89 103 1.7 7.8 0.00 0.00 0.00 62 1016.8
20260901224551 90 93 1.7 7.0 0.00 0.00 0.00 63 1016.8
20260901224048 90 37 2.6 7.0 0.00 0.00 0.00 62 1016.8
20260901223552 90 64 1.7 6.1 0.00 0.00 0.00 61 1016.7
20260901223050 90 65 0.9 9.6 0.00 0.00 0.00 62 1016.8
20260901222547 90 104 0.0 9.6 0.00 0.00 0.00 62 1016.8
20260901222047 90 43 1.7 9.6 0.00 0.00 0.00 62 1016.7
20260901221609 91 87 1.7 9.6 0.00 0.00 0.00 58 1016.7
20260901221048 92 130 3.5 9.6 0.00 0.00 0.00 57 1016.7
20260901220648 92 85 3.5 8.7 0.00 0.00 0.00 55 1016.7
20260901220049 93 131 4.3 7.8 0.00 0.00 0.00 54 1016.4
20260901215542 93 91 1.7 5.2 0.00 0.00 0.00 58 1016.4
20260901215041 93 117 1.7 7.8 0.00 0.00 0.00 57 1016.3
20260901214541 92 144 0.9 7.8 0.00 0.00 0.00 59 1016.3
20260901214041 93 12 1.7 6.1 0.00 0.00 0.00 54 1016.3
20260901213541 93 247 0.9 6.1 0.00 0.00 0.00 54 1016.3
20260901213059 93 116 1.7 7.0 0.00 0.00 0.00 54 1016.4
20260901212541 93 86 0.9 7.0 0.00 0.00 0.00 52 1016.4
20260901212041 93 96 2.6 6.1 0.00 0.00 0.00 52 1016.3
20260901211541 94 110 1.7 7.8 0.00 0.00 0.00 53 1016.4
20260901211039 95 92 3.5 7.8 0.00 0.00 0.00 47 1016.4
20260901210501 95 98 2.6 8.7 0.00 0.00 0.00 48 1016.4
20260901210118 95 96 3.5 8.7 0.00 0.00 0.00 48 1016.6
20260901210002 95 92 2.6 8.7 0.00 0.00 0.00 50 1016.4
20260901205603 95 122 1.7 7.0 0.00 0.00 0.00 50 1016.6
20260901205059 96 56 1.7 6.1 0.00 0.00 0.00 47 1016.6
20260901204609 96 130 2.6 7.0 0.00 0.00 0.00 48 1016.7
20260901204054 96 124 0.9 8.7 0.00 0.00 0.00 47 1016.7
20260901203558 96 47 3.5 8.7 0.00 0.00 0.00 47 1016.7
20260901203059 95 130 0.9 11.3 0.00 0.00 0.00 50 1016.8
20260901202553 95 104 2.6 11.3 0.00 0.00 0.00 46 1016.9
20260901202056 96 138 1.7 10.4 0.00 0.00 0.00 49 1016.8
20260901201557 97 61 4.3 10.4 0.00 0.00 0.00 47 1016.9
20260901201052 96 94 2.6 8.7 0.00 0.00 0.00 47 1016.9
20260901200651 96 45 2.6 8.7 0.00 0.00 0.00 45 1017.0
20260901200117 97 84 3.5 8.7 0.00 0.00 0.00 46 1017.1
20260901195557 97 52 3.5 8.7 0.00 0.00 0.00 44 1017.1
20260901195057 97 58 0.0 7.8 0.00 0.00 0.00 46 1017.2
20260901194608 95 87 2.6 8.7 0.00 0.00 0.00 45 1017.3
20260901194059 97 59 0.9 8.7 0.00 0.00 0.00 47 1017.3
20260901193553 98 360 0.9 4.3 0.00 0.00 0.00 44 1017.4
20260901193054 97 49 1.7 3.5 0.00 0.00 0.00 43 1017.5
20260901192557 96 196 0.0 4.3 0.00 0.00 0.00 45 1017.5
20260901192054 95 313 1.7 4.3 0.00 0.00 0.00 43 1017.6
20260901191628 97 196 0.0 3.5 0.00 0.00 0.00 42 1017.6
20260901191051 96 26 0.0 3.5 0.00 0.00 0.00 49 1017.6
20260901190648 95 38 0.9 3.5 0.00 0.00 0.00 51 1017.7
20260901190058 96 355 0.9 5.2 0.00 0.00 0.00 44 1017.7
20260901185549 95 147 0.9 5.2 0.00 0.00 0.00 47 1017.7
20260901185049 93 46 0.9 3.5 0.00 0.00 0.00 54 1017.8
20260901184549 92 32 0.9 2.6 0.00 0.00 0.00 51 1017.7
20260901184048 94 78 0.9 2.6 0.00 0.00 0.00 50 1017.8
20260901183551 95 31 0.0 2.6 0.00 0.00 0.00 43 1017.9
20260901183053 95 111 0.9 4.3 0.00 0.00 0.00 42 1017.9
20260901182546 97 5 0.9 8.7 0.00 0.00 0.00 41 1018.0
20260901182046 95 284 2.6 8.7 0.00 0.00 0.00 48 1018.1
20260901181552 94 311 2.6 6.1 0.00 0.00 0.00 47 1018.2
20260901181046 94 126 0.0 1.7 0.00 0.00 0.00 46 1018.3
20260901180645 96 131 0.0 7.0 0.00 0.00 0.00 47 1018.3
20260901180049 96 299 0.9 7.0 0.00 0.00 0.00 43 1018.3
20260901175549 96 321 1.7 7.0 0.00 0.00 0.00 43 1018.4
20260901175049 96 299 2.6 4.3 0.00 0.00 0.00 44 1018.5
20260901174547 94 236 0.9 3.5 0.00 0.00 0.00 45 1018.6
20260901174049 94 263 1.7 6.1 0.00 0.00 0.00 46 1018.7
20260901173549 94 259 0.9 6.1 0.00 0.00 0.00 48 1018.7
20260901173045 95 203 1.7 5.2 0.00 0.00 0.00 46 1018.8
20260901172547 95 162 1.7 5.2 0.00 0.00 0.00 45 1018.8
20260901172045 96 259 0.9 4.3 0.00 0.00 0.00 45 1018.9
20260901171547 95 151 1.7 4.3 0.00 0.00 0.00 46 1018.9
20260901171042 95 329 0.9 3.5 0.00 0.00 0.00 45 1019.0
20260901170506 95 101 0.0 7.0 0.00 0.00 0.00 53 1019.0
20260901170007 95 360 0.9 8.7 0.00 0.00 0.00 48 1019.1
20260901165504 95 310 4.3 8.7 0.00 0.00 0.00 47 1019.2
20260901165003 93 286 2.6 7.8 0.00 0.00 0.00 48 1019.3
20260901164503 94 275 2.6 8.7 0.00 0.00 0.00 46 1019.3
20260901164000 94 271 1.7 8.7 0.00 0.00 0.00 49 1019.3
20260901163559 94 292 2.6 8.7 0.00 0.00 0.00 47 1019.4
20260901163059 94 278 3.5 8.7 0.00 0.00 0.00 48 1019.3
20260901162557 94 313 2.6 7.8 0.00 0.00 0.00 49 1019.4
20260901162056 94 306 3.5 7.8 0.00 0.00 0.00 49 1019.4
20260901161556 94 323 3.5 8.7 0.00 0.00 0.00 50 1019.4
20260901161054 94 242 2.6 8.7 0.00 0.00 0.00 51 1019.5
20260901160512 94 303 2.6 7.0 0.00 0.00 0.00 53 1019.5
20260901160013 93 265 0.9 7.0 0.00 0.00 0.00 53 1019.5
20260901155510 93 329 1.7 5.2 0.00 0.00 0.00 54 1019.6
20260901155009 92 329 1.7 7.0 0.00 0.00 0.00 54 1019.5
20260901154511 92 11 1.7 7.0 0.00 0.00 0.00 55 1019.6
20260901154005 92 19 0.9 7.8 0.00 0.00 0.00 56 1019.6
20260901153507 91 314 2.6 7.0 0.00 0.00 0.00 56 1019.7
20260901153003 91 297 2.6 7.0 0.00 0.00 0.00 56 1019.7
20260901152501 91 249 2.6 7.0 0.00 0.00 0.00 57 1019.7
20260901152103 90 208 1.7 7.0 0.00 0.00 0.00 57 1019.7
20260901151600 90 246 2.6 10.4 0.00 0.00 0.00 57 1019.8
20260901151058 90 270 0.9 10.4 0.00 0.00 0.00 59 1019.8
20260901150557 90 257 0.9 5.2 0.00 0.00 0.00 59 1019.8
20260901150109 89 269 0.9 5.2 0.00 0.00 0.00 59 1019.8
20260901145557 89 217 0.9 7.0 0.00 0.00 0.00 62 1019.9
20260901145052 89 257 0.9 8.7 0.00 0.00 0.00 62 1019.9
20260901144552 88 320 2.6 8.7 0.00 0.00 0.00 63 1019.8
20260901144049 88 180 0.9 8.7 0.00 0.00 0.00 63 1019.9
20260901143547 88 282 1.7 8.7 0.00 0.00 0.00 64 1019.9
20260901143106 87 209 0.9 6.1 0.00 0.00 0.00 65 1020.0
20260901142544 87 205 0.9 6.1 0.00 0.00 0.00 66 1020.0
20260901142042 86 264 1.7 6.1 0.00 0.00 0.00 66 1019.9
20260901141541 86 176 3.5 7.8 0.00 0.00 0.00 67 1020.1
20260901141040 85 192 3.5 7.8 0.00 0.00 0.00 67 1020.0
20260901140508 85 194 1.7 7.8 0.00 0.00 0.00 68 1020.0
20260901140006 84 285 1.7 7.8 0.00 0.00 0.00 71 1020.1
20260901135505 83 182 0.9 5.2 0.00 0.00 0.00 73 1020.2
20260901135003 83 167 0.9 8.7 0.00 0.00 0.00 73 1020.3
20260901134502 82 198 2.6 8.7 0.00 0.00 0.00 73 1020.3
20260901134100 81 169 2.6 7.0 0.00 0.00 0.00 77 1020.3
20260901133559 79 194 2.6 7.0 0.00 0.00 0.00 79 1020.2
20260901133101 79 198 0.9 5.2 0.00 0.00 0.00 81 1020.3
20260901132602 76 228 0.9 4.3 0.00 0.00 0.00 86 1020.3
20260901132057 74 257 0.0 3.5 0.00 0.00 0.00 90 1020.2
20260901131558 73 235 0.0 3.5 0.00 0.00 0.00 91 1020.3
20260901131056 72 244 0.0 3.5 0.00 0.00 0.00 92 1020.3
20260901130656 72 166 0.9 3.5 0.00 0.00 0.00 92 1020.3
20260901130100 71 200 0.0 2.6 0.00 0.00 0.00 93 1020.3
20260901125558 70 170 0.0 0.0 0.00 0.00 0.00 93 1020.1
20260901125058 70 164 0.0 1.7 0.00 0.00 0.00 93 1020.3
20260901124601 69 151 0.0 1.7 0.00 0.00 0.00 94 1020.2
20260901124056 69 149 0.0 0.0 0.00 0.00 0.00 94 1020.2
20260901123600 68 149 0.0 0.9 0.00 0.00 0.00 94 1020.1
20260901123056 68 149 0.0 1.7 0.00 0.00 0.00 94 1019.9
20260901122555 68 144 0.0 1.7 0.00 0.00 0.00 94 1020.0
20260901122054 68 161 0.0 0.9 0.00 0.00 0.00 94 1019.9
20260901121602 68 117 0.0 0.9 0.00 0.00 0.00 94 1019.9
20260901121053 67 117 0.0 0.9 0.00 0.00 0.00 94 1019.8
20260901120652 67 117 0.0 0.9 0.00 0.00 0.00 94 1019.7
20260901120052 67 117 0.0 0.9 0.00 0.00 0.00 94 1019.8
20260901115551 67 117 0.0 0.9 0.00 0.00 0.00 94 1019.8
20260901115051 67 117 0.0 0.9 0.00 0.00 0.00 94 1019.7
20260901114551 67 117 0.0 0.0 0.00 0.00 0.00 94 1019.7
20260901114049 67 112 0.0 0.0 0.00 0.00 0.00 94 1019.6
20260901113549 67 112 0.0 0.0 0.00 0.00 0.00 94 1019.4
20260901113049 67 112 0.0 0.0 0.00 0.00 0.00 94 1019.4
20260901112548 68 112 0.0 0.0 0.00 0.00 0.00 94 1019.4
20260901112048 68 112 0.0 0.0 0.00 0.00 0.00 94 1019.3
20260901111547 68 112 0.0 0.0 0.00 0.00 0.00 94 1019.4
20260901111046 68 112 0.0 0.0 0.00 0.00 0.00 94 1019.4
20260901110646 68 112 0.0 0.0 0.00 0.00 0.00 94 1019.4
20260901110051 68 112 0.0 0.0 0.00 0.00 0.00 93 1019.3
20260901105553 68 112 0.0 0.0 0.00 0.00 0.00 93 1019.2
20260901105053 68 112 0.0 0.0 0.00 0.00 0.00 93 1019.2
20260901104550 68 112 0.0 0.9 0.00 0.00 0.00 93 1019.1
20260901104048 68 112 0.0 0.9 0.00 0.00 0.00 93 1019.2
20260901103548 68 112 0.0 1.7 0.00 0.00 0.00 93 1019.1
20260901103047 68 112 0.0 1.7 0.00 0.00 0.00 93 1019.0
20260901102546 68 148 0.0 0.9 0.00 0.00 0.00 92 1019.0
20260901102046 69 147 0.0 0.9 0.00 0.00 0.00 92 1019.0
20260901101600 69 148 0.0 1.7 0.00 0.00 0.00 92 1018.9
20260901101043 69 148 0.0 1.7 0.00 0.00 0.00 92 1018.9
20260901100643 69 133 0.0 0.9 0.00 0.00 0.00 92 1018.9
20260901100100 69 127 0.0 0.9 0.00 0.00 0.00 92 1018.8
20260901095558 69 127 0.0 0.9 0.00 0.00 0.00 92 1018.8
20260901095059 69 127 0.0 0.9 0.00 0.00 0.00 92 1018.7
20260901094558 69 127 0.0 1.7 0.00 0.00 0.00 92 1018.8
20260901094058 69 127 0.0 1.7 0.00 0.00 0.00 92 1018.8
20260901093556 69 144 0.0 1.7 0.00 0.00 0.00 92 1018.6
20260901093106 69 132 0.0 1.7 0.00 0.00 0.00 91 1018.7
20260901092555 69 132 0.0 1.7 0.00 0.00 0.00 91 1018.6
20260901092056 69 136 0.0 0.9 0.00 0.00 0.00 92 1018.5
20260901091558 69 116 0.0 0.9 0.00 0.00 0.00 91 1018.5
20260901091055 70 116 0.0 1.7 0.00 0.00 0.00 91 1018.5
20260901090655 70 117 0.0 1.7 0.00 0.00 0.00 91 1018.5
20260901090058 70 120 0.0 0.9 0.00 0.00 0.00 91 1018.4
20260901085557 70 144 0.0 0.9 0.00 0.00 0.00 91 1018.4
20260901085100 70 160 0.0 0.9 0.00 0.00 0.00 91 1018.4
20260901084557 70 169 0.0 0.9 0.00 0.00 0.00 91 1018.4
20260901084056 70 157 0.0 0.9 0.00 0.00 0.00 91 1018.3
20260901083556 70 157 0.0 0.9 0.00 0.00 0.00 91 1018.4
20260901083056 70 140 0.0 0.9 0.00 0.00 0.00 91 1018.4
20260901082555 70 140 0.0 0.9 0.00 0.00 0.00 91 1018.4
20260901082056 70 132 0.0 0.9 0.00 0.00 0.00 91 1018.4
20260901081600 70 142 0.0 0.9 0.00 0.00 0.00 91 1018.3
20260901081054 70 137 0.0 0.9 0.00 0.00 0.00 91 1018.3
20260901080654 70 133 0.0 0.9 0.00 0.00 0.00 91 1018.2
20260901080145 70 127 0.0 0.9 0.00 0.00 0.00 91 1018.0
20260901075556 70 142 0.0 1.7 0.00 0.00 0.00 91 1018.1
20260901075054 70 154 0.0 1.7 0.00 0.00 0.00 90 1018.1
20260901074553 70 128 0.0 1.7 0.00 0.00 0.00 90 1018.2
20260901074054 70 139 0.0 1.7 0.00 0.00 0.00 90 1018.1
20260901073553 70 142 0.0 1.7 0.00 0.00 0.00 90 1018.2
20260901073053 71 138 0.0 1.7 0.00 0.00 0.00 89 1018.1
20260901072552 71 123 0.0 1.7 0.00 0.00 0.00 89 1018.1
20260901072056 71 153 0.0 0.9 0.00 0.00 0.00 89 1018.1
20260901071551 71 159 0.0 0.9 0.00 0.00 0.00 89 1018.1
20260901071049 71 182 0.0 0.9 0.00 0.00 0.00 89 1018.1
20260901070651 71 182 0.0 0.9 0.00 0.00 0.00 88 1018.0
20260901070114 71 132 0.0 0.9 0.00 0.00 0.00 88 1018.1
20260901065555 71 132 0.0 1.7 0.00 0.00 0.00 89 1018.0
20260901065054 71 132 0.0 1.7 0.00 0.00 0.00 89 1018.0
20260901064605 72 138 0.0 0.9 0.00 0.00 0.00 89 1018.1
20260901064052 72 209 0.0 0.0 0.00 0.00 0.00 88 1018.2
20260901063551 72 209 0.0 0.0 0.00 0.00 0.00 88 1018.2
20260901063059 72 209 0.0 0.0 0.00 0.00 0.00 87 1018.2
20260901062550 72 209 0.0 0.9 0.00 0.00 0.00 87 1018.2
20260901062049 73 209 0.0 1.7 0.00 0.00 0.00 87 1018.2
20260901061601 73 209 0.0 2.6 0.00 0.00 0.00 87 1018.2
20260901061048 73 148 0.0 2.6 0.00 0.00 0.00 86 1018.1
20260901060647 73 132 0.9 2.6 0.00 0.00 0.00 86 1018.1
20260901060051 73 111 0.0 3.5 0.00 0.00 0.00 86 1018.1
20260901055550 74 176 0.9 3.5 0.00 0.00 0.00 85 1018.1
20260901055049 74 123 0.0 2.6 0.00 0.00 0.00 84 1018.1
20260901054551 75 188 0.0 2.6 0.00 0.00 0.00 83 1018.1
20260901054049 75 180 0.0 3.5 0.00 0.00 0.00 83 1018.1
20260901053548 75 121 0.9 4.3 0.00 0.00 0.00 82 1018.1
20260901053049 75 231 0.9 4.3 0.00 0.00 0.00 82 1018.1
20260901052546 75 147 1.7 5.2 0.00 0.00 0.00 82 1018.1
20260901052044 75 117 1.7 6.1 0.00 0.00 0.00 82 1018.1
20260901051543 76 165 0.9 7.8 0.00 0.00 0.00 80 1018.0
20260901051043 76 173 1.7 7.8 0.00 0.00 0.00 80 1018.0
20260901050645 76 142 1.7 4.3 0.00 0.00 0.00 80 1017.9
20260901050041 76 125 1.7 5.2 0.00 0.00 0.00 81 1017.9
20260901045541 77 155 0.9 6.1 0.00 0.00 0.00 79 1018.1
20260901045040 77 197 0.9 6.1 0.00 0.00 0.00 79 1018.1
20260901044557 77 117 1.7 6.1 0.00 0.00 0.00 79 1018.1
20260901044040 77 169 0.9 6.1 0.00 0.00 0.00 78 1018.1
20260901043540 78 184 1.7 6.1 0.00 0.00 0.00 77 1018.1
20260901043041 78 149 2.6 6.1 0.00 0.00 0.00 76 1018.0
20260901042539 78 156 1.7 6.1 0.00 0.00 0.00 76 1018.1
20260901042040 78 144 1.7 6.1 0.00 0.00 0.00 77 1018.0
20260901041539 77 157 1.7 6.1 0.00 0.00 0.00 78 1018.1
20260901041039 78 146 0.9 6.1 0.00 0.00 0.00 77 1018.0
20260901040639 78 173 1.7 6.1 0.00 0.00 0.00 77 1018.0
20260901040104 78 184 0.9 4.3 0.00 0.00 0.00 77 1017.9
20260901035602 78 146 1.7 5.2 0.00 0.00 0.00 77 1018.0
20260901035102 77 173 1.7 5.2 0.00 0.00 0.00 78 1018.0
20260901034558 77 141 0.9 2.6 0.00 0.00 0.00 79 1018.1
20260901034058 77 161 0.0 2.6 0.00 0.00 0.00 79 1018.1
20260901033558 77 170 0.9 3.5 0.00 0.00 0.00 79 1018.0
20260901033058 77 153 0.9 6.1 0.00 0.00 0.00 79 1018.0
20260901032600 77 171 1.7 6.1 0.00 0.00 0.00 80 1018.0
20260901032058 76 168 0.9 4.3 0.00 0.00 0.00 81 1018.0
20260901031559 75 196 0.9 6.1 0.00 0.00 0.00 82 1017.9
20260901031056 75 200 1.7 6.1 0.00 0.00 0.00 84 1018.0
20260901030656 74 160 0.9 4.3 0.00 0.00 0.00 85 1017.9
20260901030054 74 138 0.9 4.3 0.00 0.00 0.00 86 1017.9
20260901025554 73 202 0.9 4.3 0.00 0.00 0.00 86 1017.9
20260901025054 73 193 0.9 5.2 0.00 0.00 0.00 86 1017.9
20260901024601 73 161 0.9 2.6 0.00 0.00 0.00 86 1017.9
20260901024053 73 165 0.0 1.7 0.00 0.00 0.00 85 1017.8
20260901023553 74 175 0.0 1.7 0.00 0.00 0.00 85 1017.8
20260901023054 74 167 0.0 0.9 0.00 0.00 0.00 83 1017.8
20260901022553 74 159 0.0 0.9 0.00 0.00 0.00 82 1017.8
20260901022053 75 159 0.0 0.0 0.00 0.00 0.00 81 1017.7
20260901021608 75 159 0.0 0.0 0.00 0.00 0.00 80 1017.7
20260901021055 75 159 0.0 0.0 0.00 0.00 0.00 79 1017.6
20260901020653 76 159 0.0 0.9 0.00 0.00 0.00 79 1017.5
20260901020052 76 159 0.0 0.9 0.00 0.00 0.00 79 1017.5
20260901015552 76 159 0.0 0.9 0.00 0.00 0.00 79 1017.4
20260901015051 76 159 0.0 0.0 0.00 0.00 0.00 79 1017.4
20260901014552 76 159 0.0 1.7 0.00 0.00 0.00 78 1017.3
20260901014051 76 146 0.0 1.7 0.00 0.00 0.00 76 1017.3
20260901013551 77 173 0.0 0.9 0.00 0.00 0.00 76 1017.1
20260901013106 77 169 0.0 1.7 0.00 0.00 0.00 75 1017.1
20260901012553 78 159 0.0 0.9 0.00 0.00 0.00 73 1017.1
20260901012050 78 179 0.0 1.7 0.00 0.00 0.00 71 1017.0
20260901011550 79 179 0.0 1.7 0.00 0.00 0.00 71 1017.0
20260901011050 79 184 0.0 1.7 0.00 0.00 0.00 70 1016.8
20260901010651 80 184 0.0 1.7 0.00 0.00 0.00 68 1016.9
20260901010049 80 153 0.0 1.7 0.00 0.00 0.00 67 1016.9
20260901005549 81 165 0.0 1.7 0.00 0.00 0.00 66 1016.8
20260901005048 82 147 0.0 0.9 0.00 0.00 0.00 64 1016.7
20260901004549 82 144 0.0 0.9 0.00 0.00 0.00 63 1016.7
20260901004049 83 143 0.0 1.7 0.00 0.00 0.00 62 1016.7
20260901003548 84 140 0.0 2.6 0.00 0.00 0.00 62 1016.6
20260901003049 85 176 0.0 4.3 0.00 0.00 0.00 59 1016.6
20260901002548 86 157 0.9 4.3 0.00 0.00 0.00 60 1016.5
20260901002048 86 155 1.7 4.3 0.00 0.00 0.00 57 1016.4
20260901001548 86 169 1.7 5.2 0.00 0.00 0.00 57 1016.5
20260901001051 87 155 2.6 5.2 0.00 0.00 0.00 56 1016.4
20260901000648 88 230 1.7 8.7 0.00 0.00 0.00 53 1016.4
20260901000049 90 160 1.7 8.7 0.00 0.00 0.00 53 1016.4
20260831235546 90 184 1.7 5.2 0.00 0.00 0.00 50 1016.3
20260831235048 90 162 2.6 7.0 0.00 0.00 0.00 48 1016.4
20260831234545 91 191 2.6 7.8 0.00 0.00 0.00 48 1016.3
20260831234045 91 200 3.5 9.6 0.00 0.00 0.00 47 1016.3
20260831233546 91 189 2.6 10.4 0.00 0.00 0.00 48 1016.3
20260831233045 91 163 3.5 7.8 0.00 0.00 0.00 47 1016.3
20260831232547 92 216 1.7 8.7 0.00 0.00 0.00 47 1016.3
20260831232045 92 223 2.6 8.7 0.00 0.00 0.00 47 1016.3
20260831231600 92 177 2.6 7.8 0.00 0.00 0.00 46 1016.3
20260831231044 93 150 4.3 8.7 0.00 0.00 0.00 45 1016.3
20260831230644 93 109 3.5 8.7 0.00 0.00 0.00 45 1016.3
20260831230101 93 140 3.5 7.8 0.00 0.00 0.00 46 1016.4